DELTA 1 DEB, 7196

Orbit data source: Space-Track

DELTA 1 DEB, 7196 is space debris in SSO originally from a launch on Tue, 06 Nov 1973 UTC launched from the Air Force Western Test Range (AFWTR). Debris objects in space refer to the collection of defunct objects orbiting the Earth. Examples of debris include non-operational satellites, rocket bodies, and fragments generated from explosions, collisions, or faulty payload assembly.

Loading next visibility...
Identifier
7196, 1973-086FE
Orbit
SSO
Country
Flag of USUS
Related business
Manufacturer
Unknown
Mission
Spacecraft
Bus & Motor
Unknown
Mass
Unknown
Launch date (UTC)
1973-11-06 (52 years ago)
Launch vehicle
Unknown
Launch site
Air Force Western Test Range (AFWTR)
Object type
Payload
Rocket body
Debris
Shape & HBR
Unknown shape, 0.1 m
Radar Cross Section
Small (<0.1 m²)

Expand to show TLE details & history
Last TLE update: 20 hours ago

TLE from 20 hours ago
0 DELTA 1 DEB
1 07196U 73086FE  25291.74928356  .00000015  00000-0  42613-3 0  9995
2 07196 102.3984 279.0312 0052043 315.4065 221.0518 12.47064885363853
Epoch: 2025-10-18T17:58Z
TLE epoch observation values (Epoch: 2025-10-18T17:58:58.099Z)
Latitude
3.75687°
Longitude
162.63635°
Altitude
1,509.854 km
Speed
7.096 km/s
True Right ascension
06h 39m 25s
True Declination
3° 44' 12"
Sunlit
Object was in daylight at epoch
Visualization orbit readout
Latitude
Unknown
Longitude
Unknown
Altitude
Unknown
Speed
Unknown
Apparent Right ascension
Unknown
Apparent Declination
Unknown
Sunlit
N/A
Visualization observer readout
Local Sidereal Time
08:24:15
Azimuth
Unknown
Elevation
Unknown
Doppler factor
Unknown
Orbital elements
Apogee altitude
1,515.252 km
Perigee altitude
1,433.518 km
Semi-major axis
7,852.522 km
Eccentricity
0.0052
Inclination
102.3984°
RAAN
279.0312°
Arg. of periapsis
315.4065°
True anomaly
220.66206°
Mean anomaly
221.0518°
Eccentric anomaly
220.85674°
Mean motion
3.1191 °/min
Orbital period
115.42 mins
BSTAR
0.00042613
Loading maneuver chart data...
Computing Atmospheric mass density...
Loading historical data...
Loading historical data...
Loading historical data...
Loading historical data...
Loading historical data...
Loading historical data...
Loading historical data...

Documentation

Showing up to 5 results
|